Location: Staunton
(38.1490°N, 79.0720°W)
Time: 13:53:34
(UTC-05:00)

ISS - Pass Details

Date: 12 December 2017
Orbit: 402 x 407 km, 51.6° (Epoch: 11 December)

Event Time Altitude Azimuth Distance (km) Brightness Sun altitude
Rises 19:06:34 0° 311° (NW) 2,326 0.6 -24.7°
Reaches altitude 10° 19:08:40 10° 314° (NW) 1,463 -0.6 -25.1°
Enters shadow 19:09:25 16° 316° (NW) 1,163 -1.2 -25.3°
